• In Deutschland
  • Länderverzeichnis
  • Für 7 Tage
  • Wassertemperatur
  • Satellitenkarten
  • Wetterkarte
  • Widgets
  • user-avatar
    Anmelden

    Stündliche Wetter Durres

    Heute, 25 September, Montag

    Zeit Temperatur Niederschläge Wind Luftdruck Luftfeuchtigkeit
    00:00 +19°C° 0,2 mm 2 m/S 761 mmHg 70%
    01:00 +19°C° 0 mm 2 m/S 761 mmHg 68%
    02:00 +19°C° 0,1 mm 2 m/S 761 mmHg 68%
    03:00 +19°C° 0,1 mm 2 m/S 761 mmHg 69%
    04:00 +19°C° 0,1 mm 2 m/S 760 mmHg 70%
    05:00 +19°C° 0 mm 2 m/S 760 mmHg 70%
    06:00 +20°C° 0 mm 2 m/S 760 mmHg 69%
    07:00 +20°C° 0 mm 2 m/S 760 mmHg 66%
    08:00 +21°C° 0,2 mm 2 m/S 760 mmHg 63%
    09:00 +22°C° 0,2 mm 3 m/S 760 mmHg 59%
    10:00 +22°C° 0,2 mm 3 m/S 760 mmHg 55%
    11:00 +24°C° 0,4 mm 2 m/S 760 mmHg 51%
    12:00 +25°C° 0,4 mm 2 m/S 760 mmHg 47%
    13:00 +25°C° 0,4 mm 2 m/S 760 mmHg 43%
    14:00 +25°C° 0,3 mm 2 m/S 760 mmHg 45%
    15:00 +24°C° 0,3 mm 3 m/S 760 mmHg 47%
    16:00 +24°C° 0,3 mm 3 m/S 760 mmHg 49%
    17:00 +21°C° 0,2 mm 2 m/S 760 mmHg 54%
    18:00 +20°C° 0,2 mm 2 m/S 760 mmHg 60%
    19:00 +18°C° 0,2 mm 2 m/S 761 mmHg 65%
    20:00 +18°C° 0,1 mm 2 m/S 761 mmHg 66%
    21:00 +18°C° 0,1 mm 2 m/S 761 mmHg 68%
    22:00 +17°C° 0,1 mm 2 m/S 761 mmHg 69%
    23:00 +17°C° 0 mm 2 m/S 761 mmHg 70%

    Morgen, 26 September, Dienstag

    Zeit Temperatur Niederschläge Wind Luftdruck Luftfeuchtigkeit
    00:00 +17°C° 0 mm 2 m/S 761 mmHg 71%
    01:00 +17°C° 0 mm 2 m/S 761 mmHg 71%
    02:00 +16°C° 0 mm 2 m/S 761 mmHg 72%
    03:00 +16°C° 0 mm 2 m/S 761 mmHg 73%
    04:00 +16°C° 0 mm 2 m/S 761 mmHg 74%
    05:00 +17°C° 0 mm 2 m/S 761 mmHg 71%
    06:00 +17°C° 0 mm 2 m/S 761 mmHg 69%
    07:00 +18°C° 0 mm 2 m/S 761 mmHg 66%
    08:00 +20°C° 0 mm 2 m/S 761 mmHg 59%
    09:00 +24°C° 0 mm 2 m/S 762 mmHg 52%
    10:00 +26°C° 0 mm 2 m/S 762 mmHg 45%
    11:00 +26°C° 0 mm 2 m/S 762 mmHg 45%
    12:00 +26°C° 0 mm 3 m/S 761 mmHg 45%
    13:00 +27°C° 0 mm 3 m/S 761 mmHg 44%
    14:00 +26°C° 0,1 mm 4 m/S 761 mmHg 47%
    15:00 +26°C° 0,1 mm 4 m/S 761 mmHg 49%
    16:00 +25°C° 0,1 mm 4 m/S 761 mmHg 51%
    17:00 +22°C° 0 mm 4 m/S 762 mmHg 59%
    18:00 +21°C° 0 mm 4 m/S 762 mmHg 66%
    19:00 +19°C° 0 mm 3 m/S 762 mmHg 74%
    20:00 +19°C° 0 mm 3 m/S 763 mmHg 74%
    21:00 +18°C° 0 mm 3 m/S 763 mmHg 75%
    22:00 +18°C° 0 mm 2 m/S 763 mmHg 75%
    23:00 +18°C° 0 mm 2 m/S 763 mmHg 75%

    übermorgen, 27 September, Mittwoch

    Zeit Temperatur Niederschläge Wind Luftdruck Luftfeuchtigkeit
    00:00 +17°C° 0 mm 2 m/S 763 mmHg 75%
    01:00 +17°C° 0 mm 2 m/S 763 mmHg 75%
    02:00 +17°C° 0 mm 2 m/S 763 mmHg 75%
    03:00 +17°C° 0 mm 2 m/S 763 mmHg 75%
    04:00 +17°C° 0 mm 2 m/S 763 mmHg 75%
    05:00 +17°C° 0 mm 2 m/S 763 mmHg 72%
    06:00 +18°C° 0 mm 2 m/S 763 mmHg 69%
    07:00 +19°C° 0 mm 2 m/S 763 mmHg 66%
    08:00 +21°C° 0 mm 2 m/S 764 mmHg 59%
    09:00 +24°C° 0 mm 1 m/S 764 mmHg 52%
    10:00 +26°C° 0 mm 1 m/S 764 mmHg 45%
    11:00 +27°C° 0 mm 1 m/S 764 mmHg 44%
    12:00 +27°C° 0 mm 2 m/S 764 mmHg 43%
    13:00 +27°C° 0 mm 2 m/S 763 mmHg 42%
    14:00 +27°C° 0 mm 2 m/S 763 mmHg 45%
    15:00 +26°C° 0 mm 2 m/S 763 mmHg 49%
    16:00 +25°C° 0 mm 2 m/S 763 mmHg 52%
    17:00 +24°C° 0 mm 2 m/S 763 mmHg 59%
    18:00 +21°C° 0 mm 2 m/S 764 mmHg 65%
    19:00 +20°C° 0 mm 1 m/S 764 mmHg 72%
    20:00 +20°C° 0 mm 1 m/S 764 mmHg 73%
    21:00 +20°C° 0 mm 1 m/S 764 mmHg 74%
    22:00 +19°C° 0 mm 1 m/S 765 mmHg 75%
    23:00 +19°C° 0 mm 1 m/S 765 mmHg 75%

    28 September, Donnerstag

    Zeit Temperatur Niederschläge Wind Luftdruck Luftfeuchtigkeit
    00:00 +19°C° 0 mm 1 m/S 764 mmHg 75%
    01:00 +19°C° 0 mm 1 m/S 764 mmHg 75%
    02:00 +18°C° 0 mm 2 m/S 764 mmHg 75%
    03:00 +18°C° 0 mm 2 m/S 764 mmHg 75%
    04:00 +18°C° 0 mm 2 m/S 764 mmHg 75%
    05:00 +18°C° 0 mm 2 m/S 764 mmHg 73%
    06:00 +19°C° 0 mm 2 m/S 764 mmHg 71%
    07:00 +20°C° 0 mm 3 m/S 764 mmHg 69%
    08:00 +21°C° 0 mm 2 m/S 764 mmHg 62%
    09:00 +24°C° 0 mm 2 m/S 764 mmHg 55%
    10:00 +26°C° 0 mm 2 m/S 764 mmHg 48%
    11:00 +26°C° 0,1 mm 2 m/S 764 mmHg 47%
    12:00 +27°C° 0,1 mm 3 m/S 764 mmHg 46%
    13:00 +27°C° 0,1 mm 3 m/S 763 mmHg 46%
    14:00 +27°C° 0,2 mm 4 m/S 763 mmHg 48%
    15:00 +26°C° 0,2 mm 4 m/S 763 mmHg 50%
    16:00 +26°C° 0,2 mm 5 m/S 763 mmHg 52%
    17:00 +23°C° 0,1 mm 5 m/S 763 mmHg 57%
    18:00 +21°C° 0,1 mm 5 m/S 763 mmHg 63%
    19:00 +20°C° 0,1 mm 5 m/S 764 mmHg 68%
    20:00 +19°C° 0,1 mm 4 m/S 764 mmHg 70%
    21:00 +19°C° 0,1 mm 4 m/S 764 mmHg 71%
    22:00 +18°C° 0,1 mm 4 m/S 764 mmHg 73%
    23:00 +18°C° 0,1 mm 4 m/S 764 mmHg 74%

    29 September, Freitag

    Zeit Temperatur Niederschläge Wind Luftdruck Luftfeuchtigkeit
    00:00 +18°C° 0,1 mm 4 m/S 764 mmHg 74%
    01:00 +17°C° 0,1 mm 4 m/S 763 mmHg 75%
    02:00 +17°C° 0,2 mm 4 m/S 763 mmHg 75%
    03:00 +17°C° 0,2 mm 3 m/S 763 mmHg 75%
    04:00 +17°C° 0,2 mm 3 m/S 763 mmHg 76%
    05:00 +17°C° 0,1 mm 3 m/S 763 mmHg 74%
    06:00 +18°C° 0,1 mm 3 m/S 763 mmHg 72%
    07:00 +19°C° 0,1 mm 4 m/S 763 mmHg 69%
    08:00 +20°C° 0,1 mm 3 m/S 763 mmHg 62%
    09:00 +22°C° 0,1 mm 3 m/S 763 mmHg 55%
    10:00 +25°C° 0,1 mm 3 m/S 763 mmHg 47%
    11:00 +25°C° 0,1 mm 3 m/S 763 mmHg 47%
    12:00 +25°C° 0,1 mm 2 m/S 762 mmHg 47%
    13:00 +25°C° 0,1 mm 2 m/S 762 mmHg 47%
    14:00 +25°C° 0,3 mm 2 m/S 762 mmHg 53%
    15:00 +24°C° 0,3 mm 2 m/S 762 mmHg 58%
    16:00 +23°C° 0,3 mm 2 m/S 762 mmHg 64%
    17:00 +21°C° 0,7 mm 2 m/S 762 mmHg 68%
    18:00 +20°C° 0,7 mm 2 m/S 762 mmHg 72%
    19:00 +19°C° 0,7 mm 2 m/S 762 mmHg 76%
    20:00 +18°C° 0,2 mm 2 m/S 762 mmHg 76%
    21:00 +18°C° 0,2 mm 2 m/S 762 mmHg 77%
    22:00 +17°C° 0,2 mm 2 m/S 763 mmHg 77%
    23:00 +17°C° 0 mm 2 m/S 762 mmHg 77%

    30 September, Samstag

    Zeit Temperatur Niederschläge Wind Luftdruck Luftfeuchtigkeit
    00:00 +17°C° 0 mm 3 m/S 762 mmHg 77%
    01:00 +16°C° 0 mm 3 m/S 762 mmHg 76%
    02:00 +16°C° 0,1 mm 3 m/S 762 mmHg 76%
    03:00 +16°C° 0,1 mm 3 m/S 762 mmHg 76%
    04:00 +16°C° 0,1 mm 3 m/S 762 mmHg 76%
    05:00 +16°C° 0 mm 3 m/S 762 mmHg 74%
    06:00 +17°C° 0 mm 3 m/S 762 mmHg 71%
    07:00 +17°C° 0 mm 3 m/S 762 mmHg 69%
    08:00 +19°C° 0 mm 2 m/S 761 mmHg 62%
    09:00 +21°C° 0 mm 2 m/S 761 mmHg 55%
    10:00 +24°C° 0 mm 2 m/S 761 mmHg 47%
    11:00 +25°C° 0 mm 2 m/S 761 mmHg 46%
    12:00 +25°C° 0 mm 2 m/S 760 mmHg 45%
    13:00 +25°C° 0 mm 2 m/S 760 mmHg 44%
    14:00 +25°C° 0 mm 2 m/S 760 mmHg 46%
    15:00 +24°C° 0 mm 2 m/S 760 mmHg 49%
    16:00 +24°C° 0 mm 2 m/S 760 mmHg 51%
    17:00 +21°C° 0 mm 2 m/S 760 mmHg 57%
    18:00 +21°C° 0 mm 1 m/S 760 mmHg 63%
    19:00 +19°C° 0 mm 1 m/S 760 mmHg 69%
    20:00 +19°C° 0 mm 1 m/S 760 mmHg 70%
    21:00 +19°C° 0 mm 1 m/S 761 mmHg 71%
    22:00 +18°C° 0 mm 1 m/S 761 mmHg 73%
    23:00 +18°C° 0,1 mm 1 m/S 761 mmHg 73%
    Mehr zeigen